Fort Drum, NY

4:07 AM EDT on July 21, 2017 (GMT -0400)
Wheeler-Sack Army Air Field

Weather History for KGTB - January, 2013

Change the Weather History Date:

Wednesday, January 9, 2013

  Actual Average Record
Temperature  
Mean Temperature 32 °F -  
Max Temperature 43 °F 25 °F 57 °F (2008)
Min Temperature 21 °F 9 °F -18 °F (2004)
Degree Days  
Heating Degree Days 33    
Moisture  
Dew Point 28 °F    
Average Humidity 78    
Maximum Humidity 87    
Minimum Humidity 63    
Precipitation  
Precipitation 0.00 in - - ()
Sea Level Pressure  
Sea Level Pressure 30.10 in    
Wind  
Wind Speed 14 mph (SSW)    
Max Wind Speed 22 mph    
Max Gust Speed 31 mph    
Visibility 10 miles    
Events Rain    
Averages and records for this station are not official NWS values.
T = Trace of Precipitation, MM = Missing Value Source: NWS Daily Summary

Daily Weather History Graph

Daily Weather History Graph

Search for Another Location

Airport or City:

Trip Planner

Search our weather history database for the weather conditions in past years. The results will help you decide how hot, cold, wet, or windy it might be!

Date:

Astronomy

Jan. 09, 2013 Rise Set
Actual Time 7:36 AM EST 4:43 PM EST
Civil Twilight 7:04 AM EST 5:16 PM EST
Nautical Twilight 6:28 AM EST 5:52 PM EST
Astronomical Twilight 5:53 AM EST 6:27 PM EST
Moon 5:13 AM EST (1/9) 2:42 PM EST (1/9)
Length of Visible Light 10h 11m
Length of Day
9h 06m
Waning Crescent, 6% of the Moon is Illuminated
Jan 9
Waning Crescent
Jan 11
New
Jan 18
First Quarter
Jan 26
Full
Feb 3
Last Quarter

Hourly Weather History & Observations

Time (EST) Temp. Windchill Dew Point Humidity Pressure Visibility Wind Dir Wind Speed Gust Speed Precip Events Conditions
12:55 AM 26.1 °F 15.6 °F 22.5 °F 86% 30.30 in 10.0 mi SE 11.5 mph - N/A   Clear
1:55 AM 24.6 °F 13.2 °F 21.2 °F 87% 30.30 in 10.0 mi SE 12.7 mph - N/A   Clear
2:55 AM 23.9 °F 12.3 °F 20.1 °F 85% 30.29 in 10.0 mi SE 12.7 mph - N/A   Clear
3:55 AM 23.2 °F 12.0 °F 18.9 °F 84% 30.28 in 10.0 mi SE 11.5 mph - N/A   Clear
4:55 AM 22.1 °F 10.6 °F 18.0 °F 84% 30.26 in 10.0 mi SE 11.5 mph - N/A   Clear
5:55 AM 21.7 °F 9.0 °F 17.4 °F 83% 30.25 in 10.0 mi SE 13.8 mph - N/A   Clear
6:55 AM 21.7 °F 9.6 °F 17.4 °F 83% 30.24 in 10.0 mi SE 12.7 mph - N/A   Clear
7:55 AM 21.7 °F 9.0 °F 17.2 °F 83% 30.23 in 10.0 mi SE 13.8 mph - N/A   Clear
8:55 AM 24.3 °F 11.7 °F 19.0 °F 80% 30.18 in 10.0 mi SE 15.0 mph - N/A   Clear
9:55 AM 27.1 °F 13.4 °F 21.2 °F 78% 30.05 in 10.0 mi SE 20.7 mph - N/A   Clear
10:55 AM 32.5 °F 23.2 °F 25.0 °F 74% 30.10 in 10.0 mi South 12.7 mph - N/A   Clear
11:55 AM 35.1 °F 26.4 °F 26.8 °F 72% 30.02 in 10.0 mi SE 12.7 mph - N/A   Partly Cloudy
12:55 PM 36.9 °F 27.5 °F 27.7 °F 69% 29.93 in 10.0 mi SE 16.1 mph - N/A   Overcast
1:20 PM 37.4 °F 28.9 °F 28.4 °F 70% 29.93 in 10.0 mi SSE 13.8 mph - N/A Rain Light Rain
1:32 PM 37.4 °F 28.9 °F 30.2 °F 75% 29.92 in 10.0 mi South 13.8 mph 21.9 mph N/A   Mostly Cloudy
1:55 PM 41.2 °F 32.1 °F 30.4 °F 65% 29.91 in 10.0 mi SSW 19.6 mph 28.8 mph 0.00 in   Overcast
2:55 PM 43.0 °F 35.7 °F 31.1 °F 63% 29.91 in 10.0 mi SW 15.0 mph 26.5 mph N/A   Overcast
3:55 PM 42.8 °F 35.1 °F 32.0 °F 66% 29.93 in 10.0 mi WSW 16.1 mph 23.0 mph N/A   Overcast
4:22 PM 42.8 °F 35.1 °F 33.8 °F 70% 29.94 in 10.0 mi West 16.1 mph 29.9 mph N/A   Overcast
4:44 PM 41.0 °F 33.1 °F 33.8 °F 76% 29.96 in 10.0 mi WSW 15.0 mph 26.5 mph N/A   Overcast
4:55 PM 40.3 °F 31.9 °F 34.0 °F 78% 29.96 in 10.0 mi WSW 16.1 mph 29.9 mph N/A   Overcast
5:55 PM 38.8 °F 30.4 °F 34.5 °F 84% 29.99 in 10.0 mi WSW 15.0 mph 24.2 mph N/A   Overcast
6:55 PM 38.7 °F 30.9 °F 33.6 °F 82% 30.04 in 10.0 mi WSW 12.7 mph 24.2 mph N/A   Overcast
7:55 PM 39.2 °F 30.5 °F 31.1 °F 73% 30.04 in 10.0 mi WSW 16.1 mph 24.2 mph N/A   Overcast
8:55 PM 38.7 °F 30.9 °F 33.1 °F 80% 30.04 in 10.0 mi WSW 12.7 mph 25.3 mph N/A   Overcast
9:13 PM 39.2 °F 31.6 °F 32.0 °F 75% 30.05 in 10.0 mi WSW 12.7 mph 27.6 mph N/A   Mostly Cloudy
9:33 PM 37.4 °F 26.6 °F 33.8 °F 87% 30.08 in 7.0 mi West 21.9 mph 31.1 mph N/A Rain Rain
9:38 PM 37.4 °F 28.2 °F 33.8 °F 87% 30.08 in 7.0 mi West 16.1 mph 31.1 mph N/A Rain Light Rain
9:45 PM 37.4 °F 28.2 °F 33.8 °F 87% 30.09 in 10.0 mi West 16.1 mph 29.9 mph N/A   Overcast
9:55 PM 36.5 °F 26.7 °F 32.0 °F 84% 30.11 in 10.0 mi West 17.3 mph 26.5 mph 0.00 in   Overcast
10:55 PM 36.3 °F 27.1 °F 30.2 °F 78% 30.15 in 10.0 mi West 15.0 mph 23.0 mph N/A   Overcast
11:44 PM 37.4 °F 28.9 °F 30.2 °F 75% 30.18 in 10.0 mi West 13.8 mph 23.0 mph N/A   Overcast
11:46 PM 37.4 °F 28.9 °F 30.2 °F 75% 30.18 in 10.0 mi West 13.8 mph 24.2 mph N/A   Overcast
11:47 PM 37.4 °F 27.8 °F 30.2 °F 75% 30.18 in 10.0 mi West 17.3 mph 24.2 mph N/A   Overcast
11:53 PM 37.4 °F 28.5 °F 28.4 °F 70% 30.19 in 10.0 mi West 15.0 mph 25.3 mph N/A   Overcast
11:55 PM 36.7 °F 28.4 °F 28.9 °F 74% 30.19 in 10.0 mi West 12.7 mph 25.3 mph N/A   Overcast